Tracking 20370 objects as of 19-Feb-2020
HD Live streaming from Space Station
objects crossing your sky now
Track the group of recently launched Starlink satellites

METEOR 2-11 DEB

Track METEOR 2-11 DEB now!
10-day predictions


NORAD ID: 40317
Int'l Code: 1984-072C
Perigee: 924.3 km
Apogee: 954.3 km
Inclination: 82.5 °
Period: 103.7 minutes
Semi major axis: 7310 km
RCS: Unknown
Launch date: July 5, 1984
Source: Commonwealth of Independent States (former USSR) (CIS)
Launch site: PLESETSK MISSILE AND SPACE COMPLEX (PKMTR)

Note: This is SATELLITE DEBRIS
aabbcc
Your satellite tracking list
Your tracking list is empty




NASA's NSSDC Master Catalog

Two Line Element Set (TLE):
1 40317U 84072C   20050.35207090  .00000443  00000-0  35313-3 0  9998
2 40317  82.5234  73.5907 0020555 141.0887 219.1760 13.88990874264452
Source of the keplerian elements: AFSPC